Location: Sternwarte Stuttgart
(48.7670°N, 9.1830°E)
Time: 20:38:15
(UTC+01:00)

COSMO-SKYMED 1 - Pass Details

Date: 24 January 2019
Orbit: 621 x 624 km, 97.9° (Epoch: 21 February)

Event Time Altitude Azimuth Distance (km) Brightness Sun altitude
Rises 05:05:36 0° 153° (SSE) 2,894 6.3 -29.0°
Reaches altitude 10° 05:07:48 10° 149° (SSE) 1,992 5.4 -28.7°
Enters shadow 05:11:28 52° 105° (ESE) 783 3.3 -28.1°
